TimeCDT,TemperatureF,Dew PointF,Humidity,Sea Level PressureIn,VisibilityMPH,Wind Direction,Wind SpeedMPH,Gust SpeedMPH,PrecipitationIn,Events,Conditions,WindDirDegrees,DateUTC
12:58 AM,60.8,51.4,71,29.72,10.0,ENE,12.7,-,N/A,,Overcast,60,2013-03-23 05:58:00
1:58 AM,59.0,51.4,76,29.70,10.0,NE,12.7,-,N/A,,Overcast,50,2013-03-23 06:58:00
2:58 AM,58.8,51.1,75,29.70,10.0,NNE,6.9,-,N/A,,Overcast,30,2013-03-23 07:58:00
3:22 AM,59.0,51.8,77,29.73,10.0,NNE,8.1,-,N/A,,Light Drizzle,20,2013-03-23 08:22:00
3:42 AM,59.0,51.8,77,29.73,10.0,NNE,10.4,-,N/A,,Overcast,30,2013-03-23 08:42:00
3:58 AM,58.5,52.2,80,29.70,10.0,NNE,6.9,-,0.00,,Overcast,30,2013-03-23 08:58:00
4:21 AM,59.0,53.6,82,29.72,10.0,NE,8.1,-,N/A,Rain,Light Rain,40,2013-03-23 09:21:00
4:28 AM,59.0,53.6,82,29.72,10.0,NNE,8.1,-,N/A,Rain,Light Rain,30,2013-03-23 09:28:00
4:30 AM,59.0,53.6,82,29.72,10.0,North,5.8,-,N/A,,Overcast,10,2013-03-23 09:30:00
4:37 AM,59.0,53.6,82,29.72,10.0,NNE,6.9,-,N/A,,Light Drizzle,20,2013-03-23 09:37:00
4:56 AM,59.0,53.6,82,29.73,10.0,NNE,6.9,-,N/A,,Overcast,20,2013-03-23 09:56:00
4:58 AM,59.0,53.6,82,29.70,10.0,NNE,8.1,-,0.00,,Overcast,20,2013-03-23 09:58:00
5:05 AM,59.0,53.6,82,29.73,10.0,NNE,8.1,-,N/A,,Overcast,30,2013-03-23 10:05:00
5:19 AM,59.0,53.6,82,29.73,10.0,NE,8.1,-,N/A,,Drizzle,40,2013-03-23 10:19:00
5:35 AM,57.2,53.6,88,29.72,10.0,NE,6.9,-,N/A,,Overcast,40,2013-03-23 10:35:00
5:42 AM,57.2,53.6,88,29.71,10.0,NE,8.1,-,N/A,,Overcast,40,2013-03-23 10:42:00
5:58 AM,57.7,54.0,87,29.69,10.0,NE,9.2,-,0.00,,Overcast,50,2013-03-23 10:58:00
6:58 AM,56.7,52.9,87,29.69,10.0,NE,11.5,-,N/A,,Overcast,40,2013-03-23 11:58:00
7:33 AM,57.2,53.6,88,29.72,10.0,NNE,8.1,-,N/A,,Overcast,30,2013-03-23 12:33:00
7:58 AM,56.5,52.7,87,29.72,10.0,NE,11.5,-,N/A,,Overcast,40,2013-03-23 12:58:00
8:26 AM,57.2,51.8,82,29.74,10.0,NNE,10.4,-,N/A,,Overcast,30,2013-03-23 13:26:00
8:58 AM,57.4,52.7,84,29.74,10.0,NNE,8.1,-,N/A,,Overcast,20,2013-03-23 13:58:00
9:26 AM,57.2,53.6,88,29.76,10.0,NNE,8.1,-,N/A,,Overcast,30,2013-03-23 14:26:00
9:58 AM,58.1,53.8,86,29.77,10.0,North,9.2,-,N/A,,Overcast,360,2013-03-23 14:58:00
10:04 AM,57.2,53.6,88,29.77,10.0,NNE,10.4,-,N/A,,Light Drizzle,20,2013-03-23 15:04:00
10:14 AM,57.2,53.6,88,29.77,10.0,NNE,11.5,-,N/A,,Overcast,20,2013-03-23 15:14:00
10:21 AM,57.2,53.6,88,29.77,10.0,NNE,12.7,-,N/A,,Overcast,30,2013-03-23 15:21:00
10:35 AM,57.2,53.6,88,29.78,10.0,NNE,11.5,-,N/A,,Overcast,30,2013-03-23 15:35:00
10:58 AM,56.7,53.4,89,29.77,10.0,NNE,10.4,-,0.00,,Overcast,30,2013-03-23 15:58:00
10:59 AM,57.2,53.6,88,29.78,9.0,NNE,10.4,-,N/A,,Light Drizzle,20,2013-03-23 15:59:00
11:19 AM,57.2,55.4,94,29.77,7.0,NE,10.4,-,N/A,,Mostly Cloudy,40,2013-03-23 16:19:00
11:40 AM,59.0,53.6,82,29.77,10.0,NE,6.9,-,N/A,,Scattered Clouds,40,2013-03-23 16:40:00
11:58 AM,59.7,54.9,84,29.74,10.0,NNE,6.9,-,0.00,,Partly Cloudy,30,2013-03-23 16:58:00
12:58 PM,68.0,57.4,69,29.73,10.0,NNE,5.8,-,N/A,,Scattered Clouds,30,2013-03-23 17:58:00
1:58 PM,72.0,59.4,64,29.69,10.0,Variable,2.3,-,N/A,,Partly Cloudy,0,2013-03-23 18:58:00
2:58 PM,75.7,62.8,64,29.65,10.0,Calm,Calm,-,N/A,,Clear,0,2013-03-23 19:58:00
3:58 PM,78.3,62.4,58,29.60,10.0,Variable,1.2,-,N/A,,Clear,0,2013-03-23 20:58:00
4:58 PM,81.0,61.2,51,29.58,10.0,East,4.6,-,N/A,,Clear,100,2013-03-23 21:58:00
5:58 PM,82.2,61.2,49,29.57,10.0,Variable,4.6,-,N/A,,Clear,0,2013-03-23 22:58:00
6:58 PM,80.2,60.4,51,29.58,10.0,SSE,5.8,-,N/A,,Clear,160,2013-03-23 23:58:00
7:58 PM,73.6,59.7,62,29.60,10.0,East,6.9,-,N/A,,Clear,100,2013-03-24 00:58:00
8:58 PM,71.2,58.1,63,29.62,10.0,East,6.9,-,N/A,,Clear,80,2013-03-24 01:58:00
9:58 PM,68.9,58.3,69,29.66,10.0,ENE,6.9,-,N/A,,Clear,60,2013-03-24 02:58:00
10:58 PM,65.8,59.2,79,29.67,10.0,NNE,2.3,-,N/A,,Clear,30,2013-03-24 03:58:00
11:58 PM,64.0,59.2,84,29.70,10.0,North,5.8,-,N/A,,Clear,10,2013-03-24 04:58:00